Station Historical Data
Daily Summary for February 16, 2017 Units:  English    Metric   Both
« Previous Day
Next Day »
Daily Weekly Monthly Yearly Custom
  High: Low: Average:
Temperature: 28.0 °F 18.9 °F 23.2 °F
Dew Point: 19.7 °F 14.0 °F 16.3 °F
Humidity: 85% 62% 75%
Wind Speed: 11.0mph 1.0mph 4.9mph
Wind Gust: 15.0mph - -
Wind- - WNW
Pressure: 29.97 in 29.67 in -
Precipitation: 0.00 in    
Historical Graphs
 
 
Tabular Data for February 16, 2017
Time Temperature Dew Point Pressure Wind Wind Speed Wind Gust Humidity Rainfall Rate (Hourly)
00:04 23.5 °F 19.7 °F 29.68 in WNW 4.0 mph 10.0 mph 85% 0.00 in
00:09 23.5 °F 19.7 °F 29.68 in WNW 5.0 mph 12.0 mph 85% 0.00 in
00:14 23.6 °F 19.5 °F 29.68 in WNW 5.0 mph 12.0 mph 84% 0.00 in
00:19 23.8 °F 19.7 °F 29.68 in WNW 4.0 mph 7.0 mph 84% 0.00 in
00:24 23.8 °F 19.7 °F 29.68 in WNW 5.0 mph 11.0 mph 84% 0.00 in
00:29 23.9 °F 19.5 °F 29.68 in WNW 5.0 mph 11.0 mph 83% 0.00 in
00:34 24.0 °F 19.3 °F 29.68 in West 3.0 mph 10.0 mph 82% 0.00 in
00:39 24.1 °F 19.1 °F 29.68 in NNW 4.0 mph 10.0 mph 81% 0.00 in
00:44 24.2 °F 19.2 °F 29.68 in WNW 4.0 mph 10.0 mph 81% 0.00 in
00:49 24.2 °F 18.9 °F 29.68 in WNW 5.0 mph 11.0 mph 80% 0.00 in
00:54 24.2 °F 18.6 °F 29.68 in WNW 5.0 mph 11.0 mph 79% 0.00 in
00:59 24.2 °F 18.6 °F 29.68 in WNW 5.0 mph 11.0 mph 79% 0.00 in
01:04 24.2 °F 18.3 °F 29.67 in WNW 5.0 mph 11.0 mph 78% 0.00 in
01:09 24.2 °F 18.3 °F 29.68 in NW 4.0 mph 9.0 mph 78% 0.00 in
01:14 24.3 °F 18.1 °F 29.68 in NW 5.0 mph 9.0 mph 77% 0.00 in
01:19 24.3 °F 18.1 °F 29.68 in WNW 4.0 mph 7.0 mph 77% 0.00 in
01:24 24.4 °F 18.2 °F 29.68 in WNW 3.0 mph 7.0 mph 77% 0.00 in
01:29 24.5 °F 18.3 °F 29.68 in WNW 4.0 mph 8.0 mph 77% 0.00 in
01:34 24.4 °F 18.2 °F 29.68 in NW 4.0 mph 7.0 mph 77% 0.00 in
01:39 24.5 °F 18.3 °F 29.68 in WNW 7.0 mph 12.0 mph 77% 0.00 in
01:44 24.5 °F 18.6 °F 29.68 in WNW 3.0 mph 8.0 mph 78% 0.00 in
01:49 24.5 °F 18.3 °F 29.68 in NW 9.0 mph 14.0 mph 77% 0.00 in
01:54 24.5 °F 18.3 °F 29.68 in WNW 5.0 mph 14.0 mph 77% 0.00 in
01:59 24.5 °F 18.3 °F 29.68 in WNW 5.0 mph 13.0 mph 77% 0.00 in
02:04 24.4 °F 18.2 °F 29.69 in WNW 3.0 mph 8.0 mph 77% 0.00 in
02:09 24.3 °F 18.1 °F 29.69 in WNW 4.0 mph 9.0 mph 77% 0.00 in
02:14 24.3 °F 18.1 °F 29.69 in NW 4.0 mph 9.0 mph 77% 0.00 in
02:19 24.3 °F 18.1 °F 29.69 in NW 6.0 mph 11.0 mph 77% 0.00 in
02:24 24.3 °F 18.1 °F 29.69 in NNW 6.0 mph 10.0 mph 77% 0.00 in
02:29 24.2 °F 18.0 °F 29.69 in NW 4.0 mph 10.0 mph 77% 0.00 in
02:34 24.2 °F 18.0 °F 29.69 in North 4.0 mph 7.0 mph 77% 0.00 in
02:39 24.2 °F 18.0 °F 29.69 in West 6.0 mph 8.0 mph 77% 0.00 in
02:44 24.1 °F 17.9 °F 29.69 in WNW 4.0 mph 12.0 mph 77% 0.00 in
02:49 24.0 °F 17.8 °F 29.69 in WNW 3.0 mph 10.0 mph 77% 0.00 in
02:54 24.0 °F 17.8 °F 29.69 in NNW 3.0 mph 12.0 mph 77% 0.00 in
02:59 24.0 °F 17.8 °F 29.69 in NW 5.0 mph 12.0 mph 77% 0.00 in
03:04 24.0 °F 17.8 °F 29.69 in NW 7.0 mph 8.0 mph 77% 0.00 in
03:09 24.0 °F 17.8 °F 29.69 in NW 3.0 mph 7.0 mph 77% 0.00 in
03:14 23.9 °F 17.7 °F 29.69 in WNW 4.0 mph 11.0 mph 77% 0.00 in
03:19 23.8 °F 17.6 °F 29.69 in NW 3.0 mph 12.0 mph 77% 0.00 in
03:24 23.7 °F 17.5 °F 29.69 in NW 4.0 mph 13.0 mph 77% 0.00 in
03:29 23.6 °F 17.4 °F 29.69 in NW 5.0 mph 13.0 mph 77% 0.00 in
03:34 23.4 °F 16.9 °F 29.69 in NW 5.0 mph 13.0 mph 76% 0.00 in
03:39 23.4 °F 16.9 °F 29.70 in NW 5.0 mph 12.0 mph 76% 0.00 in
03:44 23.3 °F 16.9 °F 29.70 in WNW 6.0 mph 11.0 mph 76% 0.00 in
03:49 23.2 °F 16.8 °F 29.70 in NW 9.0 mph 12.0 mph 76% 0.00 in
03:54 23.1 °F 17.0 °F 29.70 in NW 8.0 mph 12.0 mph 77% 0.00 in
03:59 23.1 °F 17.0 °F 29.70 in West 6.0 mph 13.0 mph 77% 0.00 in
04:04 22.9 °F 16.8 °F 29.70 in NW 4.0 mph 13.0 mph 77% 0.00 in
04:09 22.9 °F 16.8 °F 29.71 in NW 4.0 mph 13.0 mph 77% 0.00 in
04:14 22.9 °F 16.8 °F 29.71 in NW 5.0 mph 12.0 mph 77% 0.00 in
04:19 22.7 °F 16.6 °F 29.71 in NW 5.0 mph 9.0 mph 77% 0.00 in
04:24 22.7 °F 16.6 °F 29.71 in NW 3.0 mph 9.0 mph 77% 0.00 in
04:29 22.5 °F 16.4 °F 29.71 in NW 6.0 mph 13.0 mph 77% 0.00 in
04:34 22.5 °F 16.4 °F 29.71 in NW 6.0 mph 13.0 mph 77% 0.00 in
04:39 22.4 °F 16.3 °F 29.72 in NW 5.0 mph 12.0 mph 77% 0.00 in
04:44 22.4 °F 16.3 °F 29.72 in NW 5.0 mph 12.0 mph 77% 0.00 in
04:49 22.3 °F 16.2 °F 29.72 in NW 6.0 mph 10.0 mph 77% 0.00 in
04:54 22.3 °F 16.2 °F 29.72 in NW 6.0 mph 11.0 mph 77% 0.00 in
04:59 22.4 °F 16.3 °F 29.72 in West 1.0 mph 10.0 mph 77% 0.00 in
05:04 22.3 °F 16.2 °F 29.72 in WNW 5.0 mph 12.0 mph 77% 0.00 in
05:09 22.2 °F 16.4 °F 29.72 in NNW 5.0 mph 10.0 mph 78% 0.00 in
05:14 22.2 °F 16.4 °F 29.72 in NW 5.0 mph 10.0 mph 78% 0.00 in
05:19 22.0 °F 16.8 °F 29.73 in WNW 6.0 mph 10.0 mph 80% 0.00 in
05:24 21.9 °F 17.0 °F 29.73 in North 5.0 mph 10.0 mph 81% 0.00 in
05:29 21.6 °F 17.2 °F 29.73 in WNW 2.0 mph 11.0 mph 83% 0.00 in
05:34 21.5 °F 17.4 °F 29.73 in NNW 4.0 mph 11.0 mph 84% 0.00 in
05:39 21.4 °F 17.6 °F 29.73 in NW 4.0 mph 11.0 mph 85% 0.00 in
05:44 21.4 °F 17.6 °F 29.73 in NNW 4.0 mph 8.0 mph 85% 0.00 in
05:49 21.3 °F 17.5 °F 29.74 in NNW 3.0 mph 7.0 mph 85% 0.00 in
05:54 21.2 °F 17.4 °F 29.74 in NNW 3.0 mph 8.0 mph 85% 0.00 in
05:59 21.1 °F 17.3 °F 29.74 in NNE 5.0 mph 7.0 mph 85% 0.00 in
06:04 20.9 °F 16.8 °F 29.74 in NNW 3.0 mph 7.0 mph 84% 0.00 in
06:09 20.9 °F 16.8 °F 29.75 in NW 3.0 mph 7.0 mph 84% 0.00 in
06:14 20.8 °F 16.7 °F 29.75 in NW 4.0 mph 8.0 mph 84% 0.00 in
06:19 20.6 °F 16.5 °F 29.75 in NNW 4.0 mph 9.0 mph 84% 0.00 in
06:24 20.5 °F 16.2 °F 29.75 in WNW 5.0 mph 8.0 mph 83% 0.00 in
06:29 20.4 °F 15.8 °F 29.75 in NNW 3.0 mph 10.0 mph 82% 0.00 in
06:34 20.3 °F 15.4 °F 29.75 in NNW 3.0 mph 14.0 mph 81% 0.00 in
06:39 20.2 °F 15.0 °F 29.76 in NW 4.0 mph 11.0 mph 80% 0.00 in
06:44 20.1 °F 14.6 °F 29.76 in NW 5.0 mph 11.0 mph 79% 0.00 in
06:49 19.9 °F 14.4 °F 29.76 in NNE 9.0 mph 11.0 mph 79% 0.00 in
06:54 19.7 °F 14.5 °F 29.76 in NW 5.0 mph 13.0 mph 80% 0.00 in
06:59 19.4 °F 14.5 °F 29.76 in WNW 3.0 mph 10.0 mph 81% 0.00 in
07:04 19.3 °F 14.4 °F 29.77 in West 8.0 mph 9.0 mph 81% 0.00 in
07:09 19.3 °F 14.7 °F 29.77 in NW 4.0 mph 10.0 mph 82% 0.00 in
07:14 19.2 °F 14.6 °F 29.77 in NW 4.0 mph 10.0 mph 82% 0.00 in
07:19 19.0 °F 14.4 °F 29.77 in NW 5.0 mph 11.0 mph 82% 0.00 in
07:24 19.0 °F 14.1 °F 29.78 in NNW 7.0 mph 13.0 mph 81% 0.00 in
07:29 18.9 °F 14.0 °F 29.78 in NNW 10.0 mph 15.0 mph 81% 0.00 in
07:34 18.9 °F 14.0 °F 29.78 in WNW 5.0 mph 10.0 mph 81% 0.00 in
07:39 19.1 °F 14.2 °F 29.79 in NW 4.0 mph 10.0 mph 81% 0.00 in
07:44 19.2 °F 14.3 °F 29.79 in NW 7.0 mph 12.0 mph 81% 0.00 in
07:49 19.3 °F 14.4 °F 29.80 in NW 5.0 mph 12.0 mph 81% 0.00 in
07:54 19.4 °F 14.8 °F 29.80 in WNW 6.0 mph 10.0 mph 82% 0.00 in
07:59 19.5 °F 14.9 °F 29.80 in NW 2.0 mph 10.0 mph 82% 0.00 in
08:04 19.5 °F 15.2 °F 29.80 in NNW 4.0 mph 10.0 mph 83% 0.00 in
08:09 19.5 °F 15.2 °F 29.80 in North 2.0 mph 13.0 mph 83% 0.00 in
08:14 19.6 °F 15.6 °F 29.81 in NW 4.0 mph 13.0 mph 84% 0.00 in
08:19 19.7 °F 15.4 °F 29.81 in NNW 3.0 mph 9.0 mph 83% 0.00 in
08:24 20.0 °F 15.9 °F 29.81 in NW 4.0 mph 9.0 mph 84% 0.00 in
08:29 19.9 °F 15.6 °F 29.81 in NW 5.0 mph 9.0 mph 83% 0.00 in
08:34 19.9 °F 15.6 °F 29.81 in NW 5.0 mph 11.0 mph 83% 0.00 in
08:39 20.1 °F 15.8 °F 29.81 in WNW 9.0 mph 11.0 mph 83% 0.00 in
08:49 20.2 °F 15.6 °F 29.82 in NW 3.0 mph 10.0 mph 82% 0.00 in
08:54 20.4 °F 16.1 °F 29.81 in NNW 7.0 mph 7.0 mph 83% 0.00 in
08:59 20.2 °F 15.6 °F 29.82 in NW 4.0 mph 13.0 mph 82% 0.00 in
09:04 20.1 °F 15.5 °F 29.82 in North 4.0 mph 11.0 mph 82% 0.00 in
09:09 20.2 °F 15.6 °F 29.82 in North 5.0 mph 9.0 mph 82% 0.00 in
09:14 20.4 °F 15.8 °F 29.82 in NW 5.0 mph 12.0 mph 82% 0.00 in
09:19 20.5 °F 16.2 °F 29.82 in NW 5.0 mph 12.0 mph 83% 0.00 in
09:24 20.9 °F 16.5 °F 29.82 in NW 4.0 mph 10.0 mph 83% 0.00 in
09:29 20.9 °F 16.3 °F 29.82 in NW 3.0 mph 9.0 mph 82% 0.00 in
09:34 20.9 °F 16.3 °F 29.82 in NW 3.0 mph 8.0 mph 82% 0.00 in
09:39 21.0 °F 16.1 °F 29.82 in NW 4.0 mph 15.0 mph 81% 0.00 in
09:44 21.3 °F 16.4 °F 29.83 in West 5.0 mph 11.0 mph 81% 0.00 in
09:49 21.2 °F 15.7 °F 29.83 in NW 6.0 mph 12.0 mph 79% 0.00 in
09:54 21.7 °F 16.2 °F 29.83 in NW 4.0 mph 11.0 mph 79% 0.00 in
09:59 21.4 °F 15.6 °F 29.83 in NW 7.0 mph 15.0 mph 78% 0.00 in
10:04 21.1 °F 15.9 °F 29.83 in WSW 7.0 mph 10.0 mph 80% 0.00 in
10:09 20.8 °F 15.9 °F 29.83 in WNW 4.0 mph 11.0 mph 81% 0.00 in
10:14 20.9 °F 16.0 °F 29.84 in WNW 5.0 mph 10.0 mph 81% 0.00 in
10:19 20.7 °F 15.8 °F 29.84 in NNW 5.0 mph 9.0 mph 81% 0.00 in
10:24 20.6 °F 16.0 °F 29.84 in NW 5.0 mph 12.0 mph 82% 0.00 in
10:29 20.3 °F 15.7 °F 29.84 in NW 5.0 mph 12.0 mph 82% 0.00 in
10:34 20.4 °F 15.5 °F 29.84 in NW 5.0 mph 10.0 mph 81% 0.00 in
10:39 20.5 °F 15.6 °F 29.84 in NNW 5.0 mph 13.0 mph 81% 0.00 in
10:44 20.5 °F 15.3 °F 29.84 in NNW 5.0 mph 13.0 mph 80% 0.00 in
10:49 20.5 °F 15.3 °F 29.85 in North 5.0 mph 9.0 mph 80% 0.00 in
10:54 20.9 °F 15.7 °F 29.85 in NW 4.0 mph 10.0 mph 80% 0.00 in
10:59 21.1 °F 15.6 °F 29.85 in NW 5.0 mph 9.0 mph 79% 0.00 in
11:04 21.2 °F 15.4 °F 29.85 in NW 3.0 mph 7.0 mph 78% 0.00 in
11:09 21.3 °F 15.5 °F 29.85 in NW 5.0 mph 13.0 mph 78% 0.00 in
11:14 21.1 °F 14.7 °F 29.85 in NW 6.0 mph 9.0 mph 76% 0.00 in
11:19 21.1 °F 14.4 °F 29.86 in NW 5.0 mph 11.0 mph 75% 0.00 in
11:24 21.2 °F 14.5 °F 29.86 in NW 5.0 mph 11.0 mph 75% 0.00 in
11:29 21.2 °F 14.5 °F 29.86 in NW 5.0 mph 10.0 mph 75% 0.00 in
11:34 21.3 °F 15.2 °F 29.86 in NW 4.0 mph 10.0 mph 77% 0.00 in
11:39 21.5 °F 16.3 °F 29.86 in WNW 4.0 mph 12.0 mph 80% 0.00 in
11:44 21.4 °F 15.9 °F 29.86 in WNW 5.0 mph 12.0 mph 79% 0.00 in
11:54 21.4 °F 15.3 °F 29.86 in NW 3.0 mph 12.0 mph 77% 0.00 in
11:59 21.8 °F 15.7 °F 29.86 in WNW 3.0 mph 8.0 mph 77% 0.00 in
12:04 22.3 °F 15.3 °F 29.86 in WNW 4.0 mph 9.0 mph 74% 0.01 in
12:09 22.0 °F 14.7 °F 29.86 in WNW 11.0 mph 11.0 mph 73% 0.01 in
12:19 21.8 °F 15.4 °F 29.86 in West 9.0 mph 11.0 mph 76% 0.01 in
12:24 21.7 °F 15.3 °F 29.86 in West 6.0 mph 12.0 mph 76% 0.01 in
12:29 21.8 °F 15.1 °F 29.86 in West 5.0 mph 12.0 mph 75% 0.01 in
12:34 22.5 °F 15.8 °F 29.86 in NW 6.0 mph 8.0 mph 75% 0.01 in
12:39 22.5 °F 15.5 °F 29.86 in WNW 6.0 mph 11.0 mph 74% 0.02 in
12:44 23.2 °F 15.8 °F 29.86 in WNW 6.0 mph 12.0 mph 73% 0.02 in
12:49 23.7 °F 15.3 °F 29.86 in WNW 6.0 mph 13.0 mph 70% 0.02 in
12:54 24.2 °F 16.1 °F 29.86 in NW 6.0 mph 11.0 mph 71% 0.02 in
12:59 23.6 °F 15.6 °F 29.86 in NW 6.0 mph 10.0 mph 71% 0.02 in
13:04 23.9 °F 15.9 °F 29.85 in NW 2.0 mph 9.0 mph 71% 0.01 in
13:09 25.1 °F 16.7 °F 29.86 in NW 4.0 mph 10.0 mph 70% 0.02 in
13:14 25.0 °F 16.9 °F 29.86 in West 5.0 mph 11.0 mph 71% 0.02 in
13:19 25.5 °F 17.1 °F 29.85 in WNW 7.0 mph 10.0 mph 70% 0.02 in
13:24 24.8 °F 15.0 °F 29.85 in NW 7.0 mph 11.0 mph 66% 0.03 in
13:29 24.0 °F 15.3 °F 29.86 in NW 6.0 mph 11.0 mph 69% 0.03 in
13:34 24.8 °F 16.1 °F 29.86 in WNW 5.0 mph 10.0 mph 69% 0.03 in
13:39 26.0 °F 16.5 °F 29.86 in WNW 5.0 mph 10.0 mph 67% 0.02 in
13:44 26.4 °F 17.6 °F 29.86 in WNW 5.0 mph 10.0 mph 69% 0.02 in
13:49 26.2 °F 16.4 °F 29.85 in NNW 3.0 mph 12.0 mph 66% 0.02 in
13:54 26.3 °F 16.5 °F 29.85 in WSW 3.0 mph 11.0 mph 66% 0.02 in
13:59 26.4 °F 16.6 °F 29.85 in WSW 6.0 mph 13.0 mph 66% 0.02 in
14:04 27.0 °F 17.1 °F 29.85 in WNW 6.0 mph 13.0 mph 66% 0.02 in
14:09 26.9 °F 16.3 °F 29.85 in WNW 6.0 mph 11.0 mph 64% 0.01 in
14:14 27.3 °F 16.7 °F 29.85 in WNW 6.0 mph 14.0 mph 64% 0.01 in
14:19 27.2 °F 16.3 °F 29.85 in WNW 6.0 mph 14.0 mph 63% 0.01 in
14:24 26.8 °F 16.2 °F 29.85 in West 6.0 mph 13.0 mph 64% 0.00 in
14:29 26.9 °F 16.3 °F 29.85 in NW 5.0 mph 14.0 mph 64% 0.00 in
14:34 26.9 °F 16.7 °F 29.85 in NW 4.0 mph 13.0 mph 65% 0.00 in
14:39 27.6 °F 16.3 °F 29.86 in WNW 6.0 mph 13.0 mph 62% 0.00 in
14:44 27.7 °F 16.7 °F 29.85 in WNW 6.0 mph 12.0 mph 63% 0.00 in
14:49 27.8 °F 16.5 °F 29.86 in West 5.0 mph 14.0 mph 62% 0.00 in
14:54 27.2 °F 16.3 °F 29.86 in WSW 3.0 mph 14.0 mph 63% 0.00 in
14:59 27.4 °F 16.8 °F 29.86 in NW 2.0 mph 9.0 mph 64% 0.00 in
15:04 27.2 °F 16.3 °F 29.86 in WNW 7.0 mph 13.0 mph 63% 0.00 in
15:09 26.7 °F 16.1 °F 29.86 in WNW 6.0 mph 13.0 mph 64% 0.00 in
15:14 26.6 °F 16.1 °F 29.86 in WSW 8.0 mph 12.0 mph 64% 0.00 in
15:19 27.0 °F 16.1 °F 29.86 in WNW 4.0 mph 11.0 mph 63% 0.00 in
15:24 26.7 °F 16.1 °F 29.86 in West 6.0 mph 12.0 mph 64% 0.00 in
15:29 26.7 °F 16.1 °F 29.86 in WNW 6.0 mph 10.0 mph 64% 0.00 in
15:34 27.2 °F 16.6 °F 29.86 in West 7.0 mph 11.0 mph 64% 0.00 in
15:39 27.2 °F 16.3 °F 29.87 in WNW 6.0 mph 12.0 mph 63% 0.00 in
15:44 27.4 °F 17.2 °F 29.87 in WNW 6.0 mph 12.0 mph 65% 0.00 in
15:49 27.9 °F 16.6 °F 29.87 in West 6.0 mph 12.0 mph 62% 0.00 in
15:54 28.0 °F 16.6 °F 29.87 in NW 6.0 mph 13.0 mph 62% 0.00 in
15:59 27.6 °F 16.6 °F 29.87 in West 7.0 mph 13.0 mph 63% 0.00 in
16:04 27.4 °F 16.1 °F 29.88 in West 10.0 mph 11.0 mph 62% 0.00 in
16:09 27.2 °F 16.3 °F 29.88 in West 7.0 mph 15.0 mph 63% 0.00 in
16:14 27.2 °F 16.3 °F 29.88 in NW 7.0 mph 13.0 mph 63% 0.00 in
16:19 27.0 °F 16.1 °F 29.88 in WNW 9.0 mph 11.0 mph 63% 0.00 in
16:24 27.2 °F 16.3 °F 29.88 in West 6.0 mph 11.0 mph 63% 0.00 in
16:29 27.2 °F 17.0 °F 29.88 in West 6.0 mph 15.0 mph 65% 0.00 in
16:34 27.0 °F 16.4 °F 29.88 in West 6.0 mph 15.0 mph 64% 0.00 in
16:39 27.1 °F 16.5 °F 29.88 in WNW 9.0 mph 10.0 mph 64% 0.00 in
16:44 27.2 °F 16.3 °F 29.88 in SW 6.0 mph 15.0 mph 63% 0.00 in
16:49 27.1 °F 16.9 °F 29.88 in WSW 6.0 mph 15.0 mph 65% 0.00 in
16:54 26.9 °F 16.3 °F 29.89 in West 6.0 mph 12.0 mph 64% 0.00 in
16:59 26.9 °F 16.7 °F 29.89 in West 7.0 mph 13.0 mph 65% 0.00 in
17:04 26.8 °F 16.6 °F 29.89 in West 8.0 mph 12.0 mph 65% 0.00 in
17:09 26.7 °F 16.5 °F 29.89 in West 6.0 mph 12.0 mph 65% 0.00 in
17:14 26.7 °F 16.1 °F 29.89 in SW 10.0 mph 12.0 mph 64% 0.00 in
17:19 26.6 °F 16.4 °F 29.89 in WSW 6.0 mph 12.0 mph 65% 0.00 in
17:24 26.5 °F 16.3 °F 29.89 in WNW 6.0 mph 15.0 mph 65% 0.00 in
17:29 26.5 °F 16.3 °F 29.89 in West 7.0 mph 15.0 mph 65% 0.00 in
17:34 26.4 °F 16.2 °F 29.90 in WNW 5.0 mph 13.0 mph 65% 0.00 in
17:39 26.3 °F 16.1 °F 29.90 in WSW 4.0 mph 12.0 mph 65% 0.00 in
17:44 26.2 °F 16.0 °F 29.90 in WNW 7.0 mph 8.0 mph 65% 0.00 in
17:49 26.1 °F 16.3 °F 29.90 in West 8.0 mph 9.0 mph 66% 0.00 in
17:54 26.0 °F 16.2 °F 29.90 in West 5.0 mph 10.0 mph 66% 0.00 in
17:59 25.9 °F 16.4 °F 29.90 in West 5.0 mph 13.0 mph 67% 0.00 in
18:04 25.8 °F 16.7 °F 29.90 in West 6.0 mph 13.0 mph 68% 0.00 in
18:09 25.6 °F 16.5 °F 29.90 in West 6.0 mph 13.0 mph 68% 0.00 in
18:14 25.5 °F 16.4 °F 29.91 in West 5.0 mph 11.0 mph 68% 0.00 in
18:19 25.5 °F 16.4 °F 29.91 in West 6.0 mph 12.0 mph 68% 0.00 in
18:24 25.6 °F 16.2 °F 29.91 in West 6.0 mph 10.0 mph 67% 0.00 in
18:29 25.6 °F 16.2 °F 29.91 in West 2.0 mph 12.0 mph 67% 0.00 in
18:34 25.5 °F 16.4 °F 29.91 in WNW 3.0 mph 10.0 mph 68% 0.00 in
18:39 25.5 °F 16.4 °F 29.91 in SW 7.0 mph 10.0 mph 68% 0.00 in
18:44 25.5 °F 16.4 °F 29.92 in West 7.0 mph 9.0 mph 68% 0.00 in
18:49 25.4 °F 16.3 °F 29.92 in West 5.0 mph 10.0 mph 68% 0.00 in
18:54 25.3 °F 16.2 °F 29.92 in WNW 5.0 mph 14.0 mph 68% 0.00 in
18:59 25.2 °F 16.1 °F 29.91 in West 8.0 mph 11.0 mph 68% 0.00 in
19:04 25.1 °F 16.0 °F 29.91 in West 5.0 mph 11.0 mph 68% 0.00 in
19:09 24.9 °F 16.2 °F 29.92 in West 4.0 mph 11.0 mph 69% 0.00 in
19:14 24.7 °F 16.0 °F 29.92 in West 4.0 mph 9.0 mph 69% 0.00 in
19:19 24.4 °F 15.7 °F 29.92 in West 4.0 mph 10.0 mph 69% 0.00 in
19:24 24.3 °F 15.6 °F 29.92 in West 4.0 mph 9.0 mph 69% 0.00 in
19:29 24.2 °F 15.8 °F 29.92 in West 4.0 mph 10.0 mph 70% 0.00 in
19:34 24.0 °F 15.6 °F 29.92 in NW 6.0 mph 9.0 mph 70% 0.00 in
19:39 23.9 °F 15.5 °F 29.93 in West 4.0 mph 7.0 mph 70% 0.00 in
19:44 23.9 °F 15.9 °F 29.93 in WNW 7.0 mph 9.0 mph 71% 0.00 in
19:49 23.7 °F 15.7 °F 29.93 in WNW 2.0 mph 7.0 mph 71% 0.00 in
19:54 23.4 °F 15.7 °F 29.93 in West 2.0 mph 5.0 mph 72% 0.00 in
19:59 23.2 °F 15.5 °F 29.93 in West 3.0 mph 5.0 mph 72% 0.00 in
20:09 23.1 °F 15.7 °F 29.94 in West 2.0 mph 5.0 mph 73% 0.00 in
20:14 23.0 °F 15.6 °F 29.94 in West 3.0 mph 7.0 mph 73% 0.00 in
20:19 23.1 °F 15.7 °F 29.94 in WNW 3.0 mph 7.0 mph 73% 0.00 in
20:24 23.2 °F 15.8 °F 29.94 in West 4.0 mph 10.0 mph 73% 0.00 in
20:29 23.1 °F 15.7 °F 29.94 in West 4.0 mph 9.0 mph 73% 0.00 in
20:34 23.0 °F 15.6 °F 29.95 in West 2.0 mph 8.0 mph 73% 0.00 in
20:39 22.9 °F 15.5 °F 29.95 in WNW 3.0 mph 10.0 mph 73% 0.00 in
20:44 22.9 °F 15.5 °F 29.95 in West 3.0 mph 8.0 mph 73% 0.00 in
20:49 22.9 °F 15.5 °F 29.95 in West 9.0 mph 9.0 mph 73% 0.00 in
20:54 22.9 °F 15.5 °F 29.95 in WNW 7.0 mph 11.0 mph 73% 0.00 in
20:59 22.8 °F 15.4 °F 29.95 in WSW 5.0 mph 12.0 mph 73% 0.00 in
21:04 22.8 °F 15.4 °F 29.95 in WNW 5.0 mph 11.0 mph 73% 0.00 in
21:09 22.8 °F 15.4 °F 29.95 in WNW 6.0 mph 11.0 mph 73% 0.00 in
21:14 22.6 °F 15.2 °F 29.95 in West 4.0 mph 10.0 mph 73% 0.00 in
21:19 22.6 °F 15.2 °F 29.95 in West 5.0 mph 9.0 mph 73% 0.00 in
21:24 22.6 °F 15.6 °F 29.95 in West 5.0 mph 9.0 mph 74% 0.00 in
21:29 22.4 °F 15.4 °F 29.96 in West 4.0 mph 9.0 mph 74% 0.00 in
21:34 22.3 °F 15.3 °F 29.96 in West 6.0 mph 8.0 mph 74% 0.00 in
21:39 22.2 °F 15.2 °F 29.96 in West 3.0 mph 8.0 mph 74% 0.00 in
21:44 22.1 °F 15.1 °F 29.96 in West 4.0 mph 7.0 mph 74% 0.00 in
21:49 22.0 °F 15.0 °F 29.96 in West 3.0 mph 7.0 mph 74% 0.00 in
21:54 21.8 °F 15.1 °F 29.96 in West 2.0 mph 5.0 mph 75% 0.00 in
21:59 21.8 °F 15.1 °F 29.96 in WSW 6.0 mph 6.0 mph 75% 0.00 in
22:04 21.7 °F 15.0 °F 29.96 in West 3.0 mph 6.0 mph 75% 0.00 in
22:09 21.5 °F 14.8 °F 29.96 in WNW 3.0 mph 4.0 mph 75% 0.00 in
22:14 21.4 °F 14.7 °F 29.96 in West 2.0 mph 4.0 mph 75% 0.00 in
22:19 21.4 °F 15.0 °F 29.96 in West 2.0 mph 4.0 mph 76% 0.00 in
22:24 21.3 °F 14.9 °F 29.96 in West 1.0 mph 4.0 mph 76% 0.00 in
22:29 21.2 °F 14.8 °F 29.96 in West 1.0 mph 4.0 mph 76% 0.00 in
22:34 21.0 °F 14.6 °F 29.96 in West 1.0 mph 3.0 mph 76% 0.00 in
22:39 21.1 °F 15.0 °F 29.96 in West 2.0 mph 5.0 mph 77% 0.00 in
22:44 21.3 °F 15.2 °F 29.96 in WSW 2.0 mph 5.0 mph 77% 0.00 in
22:49 21.5 °F 15.1 °F 29.96 in WSW 1.0 mph 5.0 mph 76% 0.00 in
22:54 21.7 °F 15.6 °F 29.96 in West 2.0 mph 6.0 mph 77% 0.00 in
22:59 21.9 °F 15.5 °F 29.96 in West 3.0 mph 6.0 mph 76% 0.00 in
23:04 22.0 °F 15.6 °F 29.96 in West 5.0 mph 6.0 mph 76% 0.00 in
23:09 22.1 °F 15.7 °F 29.96 in West 10.0 mph 10.0 mph 76% 0.00 in
23:14 22.2 °F 15.8 °F 29.96 in NW 5.0 mph 10.0 mph 76% 0.00 in
23:19 22.2 °F 15.5 °F 29.97 in WNW 4.0 mph 10.0 mph 75% 0.00 in
23:24 22.3 °F 15.6 °F 29.97 in West 4.0 mph 10.0 mph 75% 0.00 in
23:29 22.4 °F 15.7 °F 29.97 in West 2.0 mph 9.0 mph 75% 0.00 in
23:34 22.4 °F 15.7 °F 29.97 in West 4.0 mph 9.0 mph 75% 0.00 in
23:39 22.5 °F 15.8 °F 29.97 in West 5.0 mph 9.0 mph 75% 0.00 in
23:44 22.5 °F 15.8 °F 29.97 in WNW 3.0 mph 8.0 mph 75% 0.00 in
23:49 22.5 °F 15.8 °F 29.97 in NNW 3.0 mph 11.0 mph 75% 0.00 in
23:54 22.5 °F 15.8 °F 29.97 in West 3.0 mph 8.0 mph 75% 0.00 in
23:59 22.5 °F 15.8 °F 29.97 in WNW 5.0 mph 8.0 mph 75% 0.00 in
Buffalo, New York, USA
Compliments of Weather Underground - 2.5 mb